Tracking 17145 objects as of 29-May-2015
HD Live streaming from Space Station

GLOBALSTAR M003

Track GLOBALSTAR M003 now!
10-day predictions
GLOBALSTAR M003 is classified as:


NORAD ID: 25165
Int'l Code: 1998-008D
Perigee: 1,629.8 km
Apogee: 1,640.5 km
Inclination: 52.0 °
Period: 118.8 minutes
Semi major axis: 8006 km
RCS: 2.2435 m2 (large)
Launch date: February 14, 1998
Source: Globalstar (GLOB)
Your satellite tracking list
Your tracking list is empty





NASA's NSSDC Master Catalog

Two Line Element Set (TLE):
1 25165U 98008D   15149.15629297 -.00000194  00000-0 -11199-2 0  9994
2 25165 051.9850 259.6120 0006647 095.2575 330.9475 12.11905689788073

Source of the keplerian elements: AFSPC

N2YO: 324